Satellite: HUBBLE
Catalog number: 20580
Epoch time:      10012.78322287
Element set:     503
Inclination:      028.4687 deg
RA of node:       174.3033 deg
Eccentricity:    0.0003229
Arg of perigee:   348.3260 deg
Mean anomaly:     011.7260 deg
Mean motion:   15.00877270 rev/day
Decay rate:       3.66e-06 rev/day^2
Epoch rev:           88137
Checksum:              269

Satellite: ISS
Catalog number: 25544
Epoch time:      10014.97474444
Element set:     372
Inclination:      051.6459 deg
RA of node:       297.7480 deg
Eccentricity:    0.0007371
Arg of perigee:   183.7346 deg
Mean anomaly:     278.4013 deg
Mean motion:   15.77449251 rev/day
Decay rate:     1.7682e-04 rev/day^2
Epoch rev:           63933
Checksum:              323

Satellite: CO-58
Catalog number: 28895
Epoch time:      10013.21771845
Element set:    0487
Inclination:      098.0366 deg
RA of node:       262.6323 deg
Eccentricity:    0.0018635
Arg of perigee:   052.8542 deg
Mean anomaly:     307.4345 deg
Mean motion:   14.59833463 rev/day
Decay rate:        4.0e-07 rev/day^2
Epoch rev:           22437
Checksum:              314

Satellite: FALCON
Catalog number: 30776
Epoch time:      10014.89052336
Element set:     743
Inclination:      035.4337 deg
RA of node:       254.8178 deg
Eccentricity:    0.0001826
Arg of perigee:   307.1870 deg
Mean anomaly:     052.8680 deg
Mean motion:   15.03423303 rev/day
Decay rate:       4.82e-06 rev/day^2
Epoch rev:           15697
Checksum:              286

Satellite: MAST
Catalog number: 31126
Epoch time:      10014.64649558
Element set:     777
Inclination:      097.9617 deg
RA of node:       064.4310 deg
Eccentricity:    0.0094518
Arg of perigee:   344.0292 deg
Mean anomaly:     015.7955 deg
Mean motion:   14.53545991 rev/day
Decay rate:       1.54e-06 rev/day^2
Epoch rev:           14575
Checksum:              314

Satellite: CAPE1
Catalog number: 31130
Epoch time:      10013.58408571
Element set:    0791
Inclination:      097.9604 deg
RA of node:       061.1441 deg
Eccentricity:    0.0102753
Arg of perigee:   354.1602 deg
Mean anomaly:     005.8393 deg
Mean motion:   14.52123930 rev/day
Decay rate:       1.69e-06 rev/day^2
Epoch rev:           14522
Checksum:              257

Satellite: COMPASS
Catalog number: 32787
Epoch time:      10013.33112838
Element set:    0569
Inclination:      097.9156 deg
RA of node:       080.0838 deg
Eccentricity:    0.0016835
Arg of perigee:   069.9538 deg
Mean anomaly:     290.3509 deg
Mean motion:   14.81732392 rev/day
Decay rate:       1.29e-06 rev/day^2
Epoch rev:           09256
Checksum:              319

Satellite: AAUSAT2
Catalog number: 32788
Epoch time:      10014.15889449
Element set:     562
Inclination:      097.9152 deg
RA of node:       080.9969 deg
Eccentricity:    0.0016534
Arg of perigee:   067.4752 deg
Mean anomaly:     292.8204 deg
Mean motion:   14.81868143 rev/day
Decay rate:       6.72e-06 rev/day^2
Epoch rev:            9269
Checksum:              342

Satellite: DO-64
Catalog number: 32789
Epoch time:      10013.70539345
Element set:    0580
Inclination:      097.9222 deg
RA of node:       080.8676 deg
Eccentricity:    0.0016524
Arg of perigee:   069.7462 deg
Mean anomaly:     290.5491 deg
Mean motion:   14.81921136 rev/day
Decay rate:       5.54e-06 rev/day^2
Epoch rev:           09262
Checksum:              320

Satellite: CO-66
Catalog number: 32791
Epoch time:      10013.19677092
Element set:    0559
Inclination:      097.9169 deg
RA of node:       079.9794 deg
Eccentricity:    0.0017259
Arg of perigee:   068.6286 deg
Mean anomaly:     291.6769 deg
Mean motion:   14.81542211 rev/day
Decay rate:        8.6e-07 rev/day^2
Epoch rev:           09250
Checksum:              355

Satellite: RS-30
Catalog number: 32953
Epoch time:      10013.34809354
Element set:    0501
Inclination:      082.5026 deg
RA of node:       125.9645 deg
Eccentricity:    0.0019826
Arg of perigee:   081.6465 deg
Mean anomaly:     278.6860 deg
Mean motion:   12.43003123 rev/day
Decay rate:        1.0e-07 rev/day^2
Epoch rev:           07450
Checksum:              267

Satellite: TACSAT-3
Catalog number: 35001
Epoch time:      10013.60719974
Element set:    0204
Inclination:      040.4551 deg
RA of node:       061.4365 deg
Eccentricity:    0.0024206
Arg of perigee:   289.2337 deg
Mean anomaly:     070.5859 deg
Mean motion:   15.39977695 rev/day
Decay rate:      3.875e-05 rev/day^2
Epoch rev:           03678
Checksum:              309

Satellite: PHARMSAT
Catalog number: 35002
Epoch time:      10013.49193405
Element set:    0188
Inclination:      040.4699 deg
RA of node:       060.7896 deg
Eccentricity:    0.0027208
Arg of perigee:   292.7943 deg
Mean anomaly:     066.9996 deg
Mean motion:   15.40666374 rev/day
Decay rate:      3.347e-05 rev/day^2
Epoch rev:           03677
Checksum:              325

Satellite: HAWKSAT1
Catalog number: 35003
Epoch time:      10013.49881445
Element set:    0199
Inclination:      040.4615 deg
RA of node:       058.8664 deg
Eccentricity:    0.0026417
Arg of perigee:   298.9849 deg
Mean anomaly:     060.8317 deg
Mean motion:   15.42073154 rev/day
Decay rate:      6.910e-05 rev/day^2
Epoch rev:           03680
Checksum:              303

